Find Beidou DW 45

NORAD ID: 44231 Int'l Des: 2019-027 Owner: CNSA Country: CN Constellation: BeiDou operational
HEOCIRCULARGSO

リアルタイム位置

3D地球を読み込み中...

Beidou DW 45について

説明を読み込み中...

次回通過

Passes for default location (London). Set your location on the main map for personalized predictions.

高度履歴

Loading altitude history...

軌道要素

1 44231U 19027A 26122.15541549 -.00000242 00000-0 00000+0 0 9998
2 44231 1.5431 74.3984 0010914 282.1947 63.8631 1.00267237 25612
Epoch: May 2, 2026 • Age: 10 hours

現在のステータス

高度 35823.9 km
速度 3.07 km/s
衛星直下点 0.98°N, 144.35°E
打ち上げ日 May 17, 2019
運用期間 6.9 years
タイプ navigation

技術仕様

分類 Payload
質量 3060.00 kg
乾燥質量 1700.00 kg
総質量 3060.00 kg
長さ 3.00 m
直径 1.70 m
スパン 18.00 m
形状 Box + 2 Pan
製造者 CAST
バスタイプ DFH-3B
フェーズステータス In Orbit
所有者/国 CNSA/CN

Most Searched